COSMOS 2251 DEB, 33768

Orbit data source: Space-Track

COSMOS 2251 DEB, 33768 is space debris in LEO originally from a launch on Wed, 16 Jun 1993 UTC launched from the Plesetsk Missile And Space Complex (PKMTR). The debris from Iridium 33, an American commercial communications satellite, has been tracked extensively since its accidental collision with the defunct Russian satellite Cosmos 2251 in 2009. This event, occurring at high speed in low Earth orbit (LEO), generated thousands of pieces of space debris, significantly increasing the risk of further collisions. The Iridium 33 debris cloud has impacted space traffic management and orbital debris mitigation strategies, making it a subject of ongoing study in space situational awareness.

Loading next visibility...
Identifier
33768, 1993-036R
Orbit
LEO
Country
Flag of CISCIS
Related business
Manufacturer
Unknown
Mission
Spacecraft
Bus & Motor
Unknown
Mass
Unknown
Launch date (UTC)
1993-06-16 (33 years ago)
Launch vehicle
Unknown
Launch site
Plesetsk Missile And Space Complex (PKMTR)
Object type
Payload
Rocket body
Debris
Shape & HBR
Unknown shape, 0.5 m
Radar Cross Section
Medium (>0.1 m² and <1 m²)

Expand to show TLE details & history
Last TLE update: 14 hours ago

TLE from 14 hours ago
0 COSMOS 2251 DEB
1 33768U 93036R   26103.77534814  .00000274  00000-0  25885-3 0  9993
2 33768  74.0707  22.8750 0367320 153.8234 243.1123 13.58574841849536
Epoch: 2026-04-13T18:36Z
TLE epoch observation values (Epoch: 2026-04-13T18:36:30.079Z)
Latitude
31.88986°
Longitude
-88.03473°
Altitude
1,175.609 km
Speed
7.204 km/s
True Right ascension
02h 12m 12s
True Declination
31° 44' 40"
Sunlit
Object was in daylight at epoch
Visualization orbit readout
Latitude
Unknown
Longitude
Unknown
Altitude
Unknown
Speed
Unknown
Apparent Right ascension
Unknown
Apparent Declination
Unknown
Sunlit
N/A
Visualization observer readout
Local Sidereal Time
15:08:20
Azimuth
Unknown
Elevation
Unknown
Doppler factor
Unknown
Orbital elements
Apogee altitude
1,311.01 km
Perigee altitude
766.148 km
Semi-major axis
7,416.716 km
Eccentricity
0.03673
Inclination
74.0707°
RAAN
22.875°
Arg. of periapsis
153.8234°
True anomaly
239.4371°
Mean anomaly
243.1123°
Eccentric anomaly
241.26685°
Mean motion
3.39802 °/min
Orbital period
105.94 mins
BSTAR
0.00025885

Documentation

Showing up to 5 results
|